Hourly Data Report for October 01, 2019

All times are specified in Local Standard Time (LST). Add 1 hour to adjust for Daylight Saving Time where and when it is observed.

EUREKA CLIMATE
NUNAVUT
Current Station Operator: ECCC - MSC

79°59'21.000" N
85°56'02.000" W
10.00 m
2401199
71613
NEK

Download Data

Hourly Data (October 2019)
Hourly Data Report for October 1, 2019
TIME Temp Definition
°C
Dew Point Definition
°C
Rel Hum Definition
%
Wind Dir Definition
10's deg

Wind Spd Definition
km/h
Visibility Definition
km
Stn Press Definition
kPa
Hmdx Definition


Wind Chill Definition


Weather Definition


00:00 -0.6 -0.6 100 29 3   100.90   -2 LegendNANA
01:00 -0.2 -0.2 100 10 5   100.89   -2 LegendNANA
02:00 0.0 0.0 100 11 11   100.87   -4 LegendNANA
03:00 0.1 0.1 100 11 13   100.87     LegendNANA
04:00 -0.2 -0.2 100 11 10   100.86   -4 LegendNANA
05:00 0.2 0.2 100 14 22   100.86     LegendNANA
06:00 0.4 0.0 97 11 26   100.85     LegendNANA
07:00 -0.2 -0.5 98 11 22   100.84   -6 LegendNANA
08:00 -0.7 -0.9 98 13 16   100.85   -5 LegendNANA
09:00 -1.0 -1.7 96 13 21   100.87   -7 LegendNANA
10:00 -1.0 -2.3 90 14 9   100.90   -4 LegendNANA
11:00 -1.7 -3.1 90 14 20   100.89   -7 LegendNANA
12:00 -2.0 -3.7 89 14 20   100.94   -8 LegendNANA
13:00 -2.2 -5.2 80 14 15   100.94   -7 LegendNANA
14:00 -2.6 -5.2 82 15 24   100.92   -9 LegendNANA
15:00 -3.3 -6.3 80 13 16   100.96   -9 LegendNANA
16:00 -2.7 -6.5 75 15 27   100.94   -10 LegendNANA
17:00 -3.9 -6.0 85 14 24   100.96   -11 LegendNANA
18:00 -3.6 -5.8 85 16 16   100.95   -9 LegendNANA
19:00 -3.5 -5.6 85 12 20   100.94   -10 LegendNANA
20:00 -2.8 -5.5 81 13 18   100.93   -8 LegendNANA
21:00 -3.0 -5.1 85 14 20   100.90   -9 LegendNANA
22:00 -2.9 -4.5 89 14 23   100.88   -9 LegendNANA
23:00 -3.0 -4.2 91 13 17   100.88   -9 LegendNANA

Notes on Data Quality.

Legend

  • E = Estimated
  • M = Missing
  • NA = Not Available
Date modified: